Location: Dvur Kralove nad Labem
(50.4330°N, 15.8170°E)
Time: 15:05:07
(UTC+02:00)

ISS - Pass Details

Date: 23 May 2018
Orbit: 402 x 407 km, 51.6° (Epoch: 24 May)

Event Time Altitude Azimuth Distance (km) Brightness Sun altitude
Rises 03:49:32 0° 282° (WNW) 2,319 -0.3 -9.1°
Reaches altitude 10° 03:52:10 10° 260° (W) 1,455 -1.5 -8.8°
Maximum altitude 03:54:14 16° 220° (SW) 1,148 -2.2 -8.6°
Drops below altitude 10° 03:56:18 10° 180° (S) 1,449 -1.5 -8.4°
Sets 03:58:55 0° 158° (SSE) 2,304 -0.2 -8.1°
